Terminal Aerodrome Forecast
Issued by NWS Wichita, KS

Home | Current Version | Previous Version | Graphics & Text | Print | Product List | Glossary On
Versions: 1 2 3 4 5 6 7 8 9 10 11 12 13 14 15 16 17 18 19 20 21 22 23 24 25 26 27 28 29 30
000
FTUS43 KICT 221848 CCA
TAFICT
TAF COR
KICT 221848Z 2219/2318 19015G21KT P6SM SCT006 BKN009
      TEMPO 2219/2221 BKN006
     FM230300 19012KT 2SM BR SCT003 OVC006=

USA.gov is the U.S. government's official web portal to all federal, state and local government web resources and services.